Current Version              Previous Version:    01  02  03  04  05  06  07  08  09  10  11  12  13  14  15  16  17  18  19  20  21  22  23  24  25  26  27  28  29  30  
   31  32  33  34  35  36  37  38  39  40  41  42  43  44  45  46  47  48  49  50  51  52  53  54  55  56  57  58  59  60  

[Printable]
740
ASUS44 KFWD 191603
RWRTX
NORTH TEXAS HOURLY WEATHER ROUNDUP
NATIONAL WEATHER SERVICE FORT WORTH TX
1100 AM CDT SAT APR 19 2014

NOTE: "FAIR" INDICATES FEW OR NO CLOUDS BELOW 12,000 FEET WITH NO
SIGNIFICANT WEATHER AND/OR OBSTRUCTIONS TO VISIBILITY.

TXZ118-119-191700-
DALLAS/FORT WORTH METROPLEX

CITY           SKY/WX    TMP DP  RH WIND       PRES   REMARKS
DFW AIRPORT    PTSUNNY   72  54  53 S14       30.19S
DALLAS LOVE    PTSUNNY   71  53  52 SW8       30.20S
FTW MEACHAM    SUNNY     72  55  55 S12       30.18S
DAL-EXECUTIVE  SUNNY     73  55  53 S12       30.19F
FTW-ALLIANCE   MOSUNNY   70  55  59 SE8       30.18F
FTW-NAS-JRB    SUNNY     75  51  43 S12G17    30.23S
FTW-SPINKS     SUNNY     72  54  53 SE9       30.20S
ARLINGTON      SUNNY     71  55  56 S13       30.19F
GRAND PRAIRIE  SUNNY     72  54  53 S8        30.22F
ADDISON        MOSUNNY   70  52  52 S10       30.21R
MESQUITE       SUNNY     52  55 100 SE12      30.21S
LANCASTER      SUNNY     70  54  57 SE9       30.21F
$$

TXZ091>094-102>105-117-120-121-131>134-191700-
NORTH CENTRAL TEXAS

CITY           SKY/WX    TMP DP  RH WIND       PRES   REMARKS
SHRMAN/DENISON SUNNY     71  52  51 S13       30.22S
GAINESVILLE    SUNNY     70  53  55 S15       30.22S
BOWIE          SUNNY     71  52  50 S10G17    30.18F
BRIDGEPORT     SUNNY     72  51  48 SE10      30.20S
DECATUR        SUNNY     68  51  54 SE12      30.20S
DENTON         SUNNY     71  54  54 S15G23    30.19F
MCKINNEY       SUNNY     72  56  57 S9        30.20S
GREENVILLE     SUNNY     72  54  53 S9        30.22S
ROCKWALL       SUNNY     72  56  57 S10       30.20S
TERRELL        SUNNY     70  55  59 S14G28    30.21S
WAXAHACHIE     SUNNY     69  54  57 SE10      30.21F
CLEBURNE       MOSUNNY   70  57  64 S13       30.21S
GRANBURY       MOSUNNY   73  53  50 SE9       30.20S
$$

TXZ083>090-098>101-113>116-127>130-139>142-154-155-191700-
WESTERN NORTH TEXAS

CITY           SKY/WX    TMP DP  RH WIND       PRES   REMARKS
WICHITA FALLS  PTSUNNY   72  51  47 S14       30.16S
WF-KICKAPOO    PTSUNNY   70  50  48 S7        30.17F
VERNON         PTSUNNY   70  52  53 S13       30.15F
ABILENE        MOSUNNY   72  53  51 S17G25    30.15R
BRECKENRIDGE   MOSUNNY   74  50  42 S10G20    30.15F
GRAHAM         MOSUNNY   72  52  49 SE10      30.16S
MINERAL WELLS  SUNNY     70  53  54 S8        30.17S
STEPHENVILLE   SUNNY     71  52  51 S10       30.21S
COMANCHE       SUNNY     72  53  50 S12       30.17S
BROWNWOOD      MOSUNNY   72  54  53 SE12      30.17F
COLEMAN        PTSUNNY   68  53  58 S13       30.17S
BRADY          SUNNY     70  52  52 SE13      30.16F
$$

TXZ143>147-156>162-174-175-191700-
CENTRAL TEXAS

CITY           SKY/WX    TMP DP  RH WIND       PRES   REMARKS
WACO           SUNNY     71  56  58 SE9       30.19S
WACO-TSTC      SUNNY     72  57  60 S7        30.20S
WACO-MCGREGOR  SUNNY     72  55  56 S13       30.21S
HILLSBORO      SUNNY     72  55  55 SE13      30.20S
CORSICANA      MOSUNNY   71  56  58 SE12      30.22S
MEXIA          MOSUNNY   69  57  66 S8        30.20S
HEARNE         SUNNY     72  58  61 SE5       30.20S
CAMERON        SUNNY     72  58  60 S5        30.19S
TEMPLE         SUNNY     72  54  53 SE10      30.21S
KILLEEN        MOSUNNY   72  55  56 SE15G22   30.18R
KILLEEN-SKYLRK SUNNY    N/A N/A N/A SE12      30.17S
GATESVILLE     SUNNY     72  54  53 S8G17     30.20S
HAMILTON       SUNNY     73  54  51 SE16G24   30.19S
LAMPASAS       SUNNY     71  56  57 S8        30.17F
$$

TXZ095>097-106>112-122>126-135>138-148>153-164>167-191700-
EAST TEXAS

CITY           SKY/WX    TMP DP  RH WIND       PRES   REMARKS
PARIS          SUNNY     70  54  56 SE10      30.24R
SULPHUR SPRNGS SUNNY     71  54  54 SE7       30.24S
CLARKSVILLE      N/A     70  53  53 CALM      30.23S
MOUNT PLEASANT SUNNY     71  53  52 S9        30.24S
MINEOLA        SUNNY     72  55  56 SE7       30.23S
TYLER          MOSUNNY   72  54  53 S9        30.22R
LONGVIEW       MOSUNNY   72  56  57 VRB5      30.22R
MARSHALL       SUNNY     71  54  54 S3        30.25R
ATHENS         MOSUNNY   68  54  60 SE6       30.21R
PALESTINE      MOSUNNY   72  54  52 E8        30.23S HAZE
JACKSONVILLE   MOSUNNY   70  53  55 S6        30.24R
HENDERSON      PTSUNNY   72  53  51 SE7       30.23R
NACOGDOCHES    MOSUNNY   70  57  64 S8        30.23R
LUFKIN         SUNNY     74  58  57 VRB7      30.21S
$$

SUPPLEMENTAL OBSERVATIONS (CENTRAL)

CITY           SKY/WX    TMP DP  RH WIND       PRES   REMARKS
$$

SUPPLEMENTAL OBSERVATIONS (WEST)

CITY           SKY/WX    TMP DP  RH WIND       PRES   REMARKS
$$

SUPPLEMENTAL OBSERVATIONS (EAST)

CITY           SKY/WX    TMP DP  RH WIND       PRES   REMARKS
$$

SUPPLEMENTAL OBSERVATIONS ARE A COLLECTION OF AUTOMATED INSTRUMENTS
THAT ARE MAINTAINED BY A VARIETY OF FEDERAL AND STATE AGENCIES.
CERTAIN ELEMENTS...SUCH AS HUMIDITY VALUES AND SUSTAINED WIND
SPEEDS...MAY BE APPROXIMATED.